Regional Weather Roundup
Issued by NWS

Home | Current Version | Previous Version | Graphics & Text | Print | Product List | Glossary On
Versions: 1 2 3 4 5 6 7 8 9 10 11 12 13 14 15 16 17 18 19 20 21 22 23 24 25 26 27
000
ASUS45 KBOI 240310
RWRID

IDAHO REGIONAL WEATHER ROUNDUP
NATIONAL WEATHER SERVICE BOISE ID
900 PM MDT FRI JUN 23 2017

NOTE: "FAIR" INDICATES FEW OR NO CLOUDS BELOW 12000 FEET
WITH NO SIGNIFICANT WEATHER AND/OR OBSTRUCTIONS TO VISIBILITY

IDZ012-014-240400-
SOUTHWEST IDAHO


CITY           SKY/WX    TMP DP  RH WIND       PRES   REMARKS
BOISE          CLEAR     79  28  15 NW9       30.10S
CALDWELL       CLEAR     77  37  23 W6        30.09F
MOUNTAIN HOME  CLEAR     77  31  18 NW10      30.10S
$$

IDZ016-017-240400-
SOUTHCENTRAL IDAHO


CITY           SKY/WX    TMP DP  RH WIND       PRES   REMARKS
BURLEY         CLEAR     70  40  33 W6        30.15R
JEROME         CLEAR     71  36  27 SW3       30.15S
TWIN FALLS     CLEAR     69  40  34 W5        30.16S
$$

IDZ019>023-240400-
SOUTHEAST IDAHO


CITY           SKY/WX    TMP DP  RH WIND       PRES   REMARKS
IDAHO FALLS    CLEAR     73  33  23 SE5       30.19S
POCATELLO      CLEAR     71  34  25 CALM      30.18R
REXBURG        CLEAR     70  36  28 VRB3      30.19S
$$

IDZ006-010-011-018-031-032-240400-
CENTRAL IDAHO MOUNTAINS


CITY           SKY/WX    TMP DP  RH WIND       PRES   REMARKS
MCCALL         CLEAR     70  31  23 N8        30.21F
HAILEY         CLEAR     66  43  42 SE9       30.22R
STANLEY          N/A     65  34  31 CALM      30.28R
SALMON         CLEAR     66  37  34 S5        30.14R
CHALLIS        CLEAR     67  34  29 N9        30.18R
$$

IDZ002-004-006-007-026-240400-
NORTHERN IDAHO


CITY           SKY/WX    TMP DP  RH WIND       PRES   REMARKS
LEWISTON       CLEAR     79  33  19 N6        30.13S
LOWELL           N/A     64  48  56 CALM      30.14R
COEUR D`ALENE  CLEAR     75  40  28 N5        30.18S
MULLAN PASS    CLEAR     58  26  29 N6        30.32S
$$




USA.gov is the U.S. government's official web portal to all federal, state and local government web resources and services.